Location: Stoke Bliss
(52.2667°N, 2.5167°W)
Time: 17:46:05
(UTC+00:00)

Cosmos 1666 Rocket - Pass Details

Date: 03 March 2021
Orbit: 605 x 632 km, 82.5° (Epoch: 16 April)

Event Time Altitude Azimuth Distance (km) Brightness Sun altitude
Rises 18:58:55 0° 197° (SSW) 2,859 7.2 -10.8°
Reaches altitude 10° 19:01:09 10° 201° (SSW) 1,957 6.3 -11.1°
Maximum altitude 19:05:27 65° 283° (WNW) 674 4.0 -11.8°
Drops below altitude 10° 19:09:46 10° 6° (N) 1,967 6.1 -12.5°
Sets 19:12:01 0° 9° (N) 2,876 7.0 -12.8°
